Weather in Eydhafushi

Maldives     5°06′10″N   73°04′15″E
temp.,
°C
wind,
m/s
gust,
m/s
humid.,
%
clouds,
%
prec.,
mm/h
press.,
hPa
HPBL,
m
10 august, wed
wed1023:00+27w678423 1.8 1009514
02:00+27wnw5681100 1.4 1008518
05:00+27w348010 1.8 1008502
08:00+27w448074 0.1 1009530
11:00+27w3479100 0.1 1009576
14:00+27w3479100 0.0 1007586
17:00+28wnw4578100 0.0 1007647
20:00+28wnw358359 0.0 1008699
11 august, thu
thu1123:00+27wnw458125 0.0 1009624
02:00+27wnw55849 1.8 1008444
05:00+27wnw458125 2.9 1008368
08:00+27w4579100 0.0 1010568
11:00+28w3376100 0.0 1009540
14:00+28w337519 0.0 1008579
17:00+28wsw227436 0.0 1008497
20:00+28w23785 0.1 1009415
12 august, fri
fri1223:00+27wsw22785 0.6 1010236
02:00+27sw227797 0.0 1009384
05:00+27wsw227999 0.8 1010224
08:00+27wsw337728 0.1 1011438
11:00+27wsw23756 0.1 1010483
14:00+27wnw237318 0.0 1008609
17:00+28wnw227159 0.0 1008625
20:00+28nw227614 0.0 1010556
13 august, sat
sat1323:00+27nnw1175100 0.0 1011476
02:00+27wnw117780 0.1 1009343
05:00+26wnw228052 0.3 1009255
08:00+27wsw227878 0.4 1011373
11:00+27w1278100 0.6 1011337
14:00+27w3376100 0.0 1008568
17:00+27w227499 0.0 1008681
20:00+27w1275100 0.0 1010603
14 august, sun
sun1423:00+27nw2276100 0.0 1010486
02:00+27nw237992 0.2 1008476
05:00+27wnw238048 1.6 1009431
08:00+27wnw11787 0.1 1011422
11:00+27nnw117780 0.1 1011446
14:00+27nw2376100 0.0 1009583
17:00+27nnw237559 0.0 1009710
20:00+27n237790 0.0 1010641